Wind_Speed
103 103 103 103 103 103 103 103 104 105 106 108 109 110 111 111 111 111 112 112 113 113 113 113 113 113 112 112 112 113 113 113 114 114 114 114 114 114 114 114 113 113 113 113 113 113 114 114 114 115 116 116 116 117 117 117 117 116 116 116 116 116 116 117 115 114 114 114 114 115 116 117 117 118 119 119 120 120 121 121 120 120 121 122 122
103 103 104 104 104 104 104 103 103 104 105 106 108 109 110 111 112 112 113 114 114 115 115 116 116 115 115 115 115 115 116 116 116 116 116 116 117 117 117 117 117 116 116 116 116 116 116 117 117 118 118 118 118 118 118 118 118 118 118 118 118 119 119 120 119 118 118 118 117 117 118 118 119 120 121 121 122 122 122 122 122 123 123 124 125
102 102 103 103 103 103 103 103 104 104 105 105 106 106 108 109 111 112 113 114 115 115 117 118 118 118 118 118 118 119 119 119 119 119 119 119 118 119 119 120 120 120 120 120 120 120 120 120 120 121 121 121 120 120 120 121 121 121 121 122 122 123 123 124 123 123 122 122 122 122 122 122 123 123 124 125 125 126 126 126 126 126 126 127 127
99 100 101 101 101 101 102 102 103 104 105 105 105 105 106 107 108 109 111 112 113 115 117 119 120 121 122 122 122 122 123 123 123 123 122 122 121 121 121 121 121 122 122 123 124 124 124 124 124 124 124 124 123 123 123 123 124 124 125 126 126 127 127 128 128 127 127 127 126 126 126 126 126 127 128 128 129 129 129 129 129 129 130 130 131
96 97 98 99 100 100 100 100 101 102 103 104 105 105 105 106 107 107 108 109 111 113 115 117 120 122 123 124 125 126 127 127 127 127 126 126 126 125 125 124 124 124 124 125 126 126 126 127 127 128 128 128 128 128 127 127 127 128 128 129 130 131 131 132 132 132 132 131 130 130 130 130 130 131 131 132 132 132 133 133 133 134 134 135 135
94 95 96 97 98 99 99 100 100 101 102 103 104 104 105 106 106 106 107 107 108 110 112 115 117 119 121 123 125 126 128 129 129 130 130 130 130 130 129 129 129 128 128 129 129 129 130 130 131 132 132 133 133 133 133 133 132 132 132 133 134 134 135 135 136 136 135 135 134 134 134 134 134 134 135 135 135 135 136 136 137 137 138 139 139
93 94 95 96 97 98 99 99 100 100 101 102 102 103 104 105 105 105 105 106 107 108 110 112 114 115 117 118 120 122 124 126 128 129 130 131 131 132 132 132 132 133 133 134 134 134 135 135 136 136 137 137 137 137 137 137 136 136 136 136 137 138 138 139 139 139 139 138 138 137 137 137 137 137 138 138 138 138 139 140 141 141 141 141 141
92 93 93 94 95 97 98 99 99 100 101 101 102 103 104 104 105 105 105 106 107 107 108 110 111 112 114 115 117 119 121 122 124 125 127 128 129 130 131 132 132 133 134 135 136 136 137 137 138 138 138 138 138 138 137 136 136 136 136 137 139 139 140 141 141 141 140 140 140 139 139 139 139 139 140 140 141 141 142 142 142 142 142 142 142
92 93 93 93 94 95 96 97 99 100 100 101 102 102 103 104 105 105 106 106 107 107 107 108 108 109 111 113 114 116 118 119 121 122 123 124 125 125 127 128 128 129 130 131 132 133 134 135 135 136 136 136 136 136 136 135 135 135 136 137 138 139 140 140 141 141 141 141 140 140 140 140 140 140 141 141 142 142 142 142 141 141 141 140 139
91 92 93 93 94 94 94 95 96 98 99 100 101 102 103 104 104 105 105 106 106 107 107 107 107 107 109 110 111 113 115 116 117 118 119 120 121 122 123 124 125 126 127 128 129 131 132 133 134 135 136 136 137 137 137 137 137 137 137 138 138 139 139 140 140 140 140 140 140 140 140 140 140 140 141 142 142 142 141 140 139 139 138 137 136
91 92 93 94 94 94 94 94 95 95 96 98 99 101 102 103 103 104 104 105 105 106 106 106 107 107 107 108 109 110 112 113 114 116 117 118 119 120 122 123 124 125 127 128 129 130 132 133 134 135 136 137 138 138 139 139 139 139 140 140 140 140 140 140 141 141 141 141 141 141 140 140 140 141 141 141 141 141 141 140 139 138 137 137 137
91 91 92 93 94 95 95 95 95 95 95 95 96 97 98 100 101 102 102 103 103 104 104 105 106 107 107 108 109 110 111 112 113 115 116 117 119 120 122 123 125 126 127 128 130 131 133 134 135 136 137 138 139 139 140 140 140 141 141 141 141 141 142 142 142 142 142 142 142 141 141 142 142 142 142 142 142 142 141 140 140 139 138 138 138
91 91 92 92 93 94 95 96 96 96 96 96 96 96 96 96 97 98 99 100 101 101 102 103 104 105 106 107 108 109 110 111 113 114 116 117 119 121 123 125 126 128 129 130 131 133 134 135 136 137 138 138 139 139 140 140 140 140 140 140 140 141 141 142 142 142 142 141 141 141 142 142 142 142 142 142 141 141 140 140 139 138 137 137 136
91 92 92 92 93 93 94 95 96 96 96 96 96 96 96 96 96 96 97 98 99 99 100 101 102 103 105 106 107 109 110 111 113 114 115 117 119 122 124 126 127 129 130 132 133 134 135 135 136 137 137 138 138 138 138 138 138 137 137 137 137 138 138 139 139 140 139 139 139 139 140 140 140 140 139 139 138 138 138 137 136 134 133 132 131
90 91 91 92 92 93 93 94 94 95 95 96 96 96 96 96 97 97 97 97 98 98 99 100 101 103 104 105 107 108 110 111 113 114 116 118 120 122 124 125 127 129 130 131 132 133 133 134 135 135 135 135 135 135 135 134 134 134 133 133 134 134 134 135 136 136 135 135 135 135 136 135 135 135 135 134 134 133 133 132 130 128 127 125 124
88 89 90 91 91 91 92 92 92 93 93 93 93 94 94 94 95 96 96 97 97 98 99 100 101 102 104 105 107 108 110 111 113 114 115 117 119 121 122 124 125 126 127 128 129 129 130 130 130 130 130 130 129 129 129 129 128 128 128 128 128 129 129 130 130 130 130 129 129 130 130 130 129 129 129 128 127 127 126 124 123 122 121 120 119
86 87 88 89 90 91 91 92 92 92 91 90 90 90 91 92 92 93 94 95 96 97 98 99 100 101 103 104 105 107 108 110 111 112 113 115 117 118 119 120 121 122 123 124 124 124 124 123 123 122 122 122 122 122 121 121 121 121 122 122 122 122 122 123 123 123 123 123 123 123 123 123 123 123 122 121 121 120 119 118 117 117 116 114 114
84 85 85 87 88 89 90 91 91 92 91 90 89 89 89 89 90 91 92 93 94 95 97 98 99 100 101 102 104 105 106 107 109 110 110 111 113 114 115 116 116 116 117 117 117 116 116 115 115 114 114 114 114 114 114 115 115 115 115 115 115 115 115 116 117 117 117 116 116 116 116 117 117 117 117 116 116 115 114 113 113 112 111 110 110
81 82 83 83 84 85 87 88 89 89 89 89 88 88 88 88 88 88 89 90 91 92 93 95 96 97 99 100 101 103 104 105 106 107 107 108 109 110 110 110 110 110 110 109 109 108 108 108 108 108 108 109 109 109 109 110 110 110 110 110 110 110 111 111 112 112 112 111 111 112 112 112 112 113 113 112 112 111 110 109 109 108 107 106 106
79 79 79 80 80 81 83 84 85 86 85 85 85 85 85 85 85 86 86 87 87 88 89 90 91 93 95 96 97 99 100 101 102 103 104 104 105 105 106 105 104 103 103 102 102 102 103 103 103 104 104 105 105 106 106 106 106 106 106 106 106 106 107 107 107 107 108 108 108 108 109 109 109 109 108 108 108 107 106 106 105 105 104 103 102
75 76 76 76 77 78 79 80 81 81 81 81 81 81 82 83 83 84 84 84 85 86 86 87 88 89 90 91 93 94 96 97 98 99 99 100 100 100 100 100 99 98 98 98 98 99 99 99 100 100 101 102 102 103 103 103 103 102 102 103 103 103 104 104 104 104 104 104 105 105 105 105 105 105 105 105 104 104 104 103 102 102 101 100 100
71 72 72 73 73 74 75 76 77 77 78 78 78 79 79 80 81 81 81 82 82 83 84 84 85 86 86 87 89 90 91 92 93 93 94 94 93 93 93 94 94 94 94 95 95 96 96 97 97 98 98 99 99 99 99 100 100 100 100 100 100 101 101 101 101 101 101 101 101 101 101 102 102 102 102 102 102 102 101 100 99 99 99 99 99
67 67 68 68 70 71 71 72 73 74 74 75 76 76 77 77 78 78 78 78 79 80 80 81 81 82 83 84 85 86 87 87 88 88 88 88 88 88 88 88 89 90 90 91 92 93 93 94 94 94 95 95 95 96 96 97 97 98 98 98 98 98 98 98 98 98 98 98 98 98 99 99 99 99 100 100 100 100 99 99 98 98 98 98 98
63 63 64 64 65 66 67 68 69 69 70 70 71 72 73 73 74 74 75 75 76 76 77 78 78 79 80 81 82 82 82 82 82 83 83 83 83 83 83 84 85 86 87 88 88 89 89 90 90 91 91 92 93 93 94 94 94 95 95 95 95 95 96 96 95 95 96 96 96 96 97 97 97 97 97 98 98 98 98 98 98 97 97 96 96
60 60 60 61 61 62 63 63 64 65 65 66 67 68 69 69 70 71 72 73 73 74 75 76 76 77 77 77 77 78 78 78 78 78 78 78 78 79 79 80 81 82 83 84 85 85 86 86 87 88 89 90 90 90 91 91 91 92 92 92 92 93 93 93 93 92 92 93 93 93 94 95 95 95 95 96 96 96 96 96 96 96 96 95 95
59 58 58 58 59 59 60 61 61 62 62 63 64 65 66 67 68 69 70 71 72 73 73 74 74 74 74 74 74 74 74 74 74 75 75 75 75 76 76 77 78 79 79 80 81 82 83 84 85 86 86 87 87 87 88 88 89 89 89 89 89 89 89 90 90 89 89 90 90 90 91 92 92 93 94 94 95 95 95 95 95 94 94 94 93
58 57 57 57 58 58 59 59 60 61 61 62 62 63 64 65 66 68 69 70 71 72 72 72 72 72 72 72 71 71 71 70 71 71 72 72 72 73 73 74 75 75 76 77 78 79 80 81 81 82 83 83 84 84 85 85 85 85 85 85 85 85 86 86 86 87 87 88 88 88 89 89 90 90 91 92 92 93 94 94 93 93 93 93 91
58 57 57 57 57 58 58 59 60 60 61 61 62 62 64 65 66 67 68 69 69 70 70 70 70 70 70 69 69 69 68 68 68 69 69 70 70 71 72 72 72 73 74 74 75 75 76 76 77 78 79 80 80 81 81 81 82 82 82 83 83 83 83 84 84 84 85 86 86 87 87 88 88 88 89 89 90 91 91 91 91 92 92 92 91
57 57 57 57 57 57 58 59 59 60 60 60 61 62 63 64 65 66 66 67 67 67 67 67 67 67 67 67 67 67 67 66 66 67 67 67 68 69 70 70 70 71 71 71 71 71 72 74 75 75 76 77 77 78 79 79 80 81 81 81 81 82 82 82 83 83 83 84 84 85 85 86 86 87 87 87 88 88 89 89 89 90 90 90 90
54 55 55 55 55 56 56 57 58 58 58 59 60 61 62 63 64 64 64 64 64 64 64 65 64 65 65 65 65 65 65 65 64 64 65 65 65 66 67 68 69 69 69 69 69 69 71 72 73 73 74 75 76 77 77 78 79 79 79 80 80 80 81 81 81 82 82 82 83 83 84 84 85 85 85 86 86 87 87 87 87 87 87 87 87
52 52 53 53 53 53 54 55 55 56 57 57 58 59 61 61 62 62 62 62 62 62 62 62 62 62 63 64 64 64 64 64 63 63 62 62 63 64 65 66 66 67 68 68 68 68 69 70 71 72 73 74 74 75 75 76 76 77 77 78 78 79 80 80 80 81 81 82 82 82 83 83 83 83 84 84 84 85 85 85 85 85 84 84 84
50 50 50 51 51 52 52 53 53 54 55 56 57 57 58 59 60 60 60 59 59 59 59 59 60 60 60 61 62 62 62 62 62 62 61 61 61 63 63 64 65 66 67 67 67 67 68 69 70 71 72 72 72 73 73 74 74 75 75 76 77 78 78 79 80 80 80 81 81 81 81 81 81 81 81 81 81 82 82 83 82 82 82 81 82
48 48 48 49 49 50 51 51 52 53 53 54 55 55 55 56 57 57 57 57 57 57 57 58 58 58 58 59 59 60 60 61 61 61 60 60 61 61 61 62 63 65 65 65 65 66 67 67 68 69 70 70 71 71 72 72 73 73 74 75 75 76 76 77 78 78 78 79 79 79 79 79 79 79 79 79 79 79 79 80 80 80 80 79 79
46 46 47 47 48 49 50 50 51 51 52 52 53 53 53 54 54 54 55 55 55 55 55 55 55 55 55 56 57 58 58 59 60 60 60 59 60 60 60 60 61 63 63 63 63 64 65 66 66 67 68 68 69 70 71 71 72 73 73 73 74 74 74 75 75 75 76 76 77 77 78 78 78 78 78 78 78 78 78 78 78 78 78 78 78
44 44 45 45 46 47 48 49 49 50 50 51 51 51 52 52 52 52 52 52 53 53 54 54 53 53 53 54 55 56 56 57 58 58 58 58 59 59 58 58 60 60 61 61 61 61 62 63 64 65 66 66 67 68 68 69 70 71 71 72 72 72 72 72 73 73 74 74 74 75 75 76 76 76 77 77 77 77 77 77 77 77 77 77 77
43 43 44 44 45 46 47 48 48 48 49 49 50 50 50 51 51 51 51 50 50 50 50 51 52 53 53 54 54 54 55 55 55 55 56 56 57 57 57 57 58 58 59 59 60 60 61 61 62 63 63 64 65 66 66 67 68 69 69 70 70 70 71 71 71 72 72 72 73 73 74 74 74 74 75 75 75 75 75 75 75 75 75 75 75
42 42 43 44 44 45 45 46 46 47 47 48 48 49 49 49 50 50 49 49 49 48 48 48 49 50 51 53 53 54 54 53 53 53 53 54 55 56 56 56 56 57 57 58 59 59 60 60 61 61 62 63 63 64 65 66 66 67 67 68 68 69 69 70 70 71 71 71 72 72 72 72 72 72 73 73 73 72 72 72 72 72 72 72 72
41 41 42 43 43 43 44 44 44 45 46 46 47 47 48 48 48 48 48 48 47 47 46 46 46 47 48 50 51 52 52 51 51 51 51 52 53 55 55 55 55 56 56 57 58 58 59 60 60 61 62 62 63 63 64 64 65 65 66 66 66 67 68 68 69 69 69 69 69 69 70 70 70 70 70 70 70 70 69 69 69 69 69 69 69
40 41 41 41 41 41 42 42 43 43 44 45 45 46 46 47 47 47 46 46 46 45 45 44 44 45 46 47 48 49 49 49 49 49 49 50 51 52 53 54 54 55 56 56 57 57 58 59 59 60 61 61 61 62 62 63 63 63 64 64 64 65 65 66 66 66 66 67 67 67 67 67 67 67 67 67 67 67 67 67 67 66 66 67 67
39 39 39 40 40 40 41 41 42 42 43 43 43 44 44 44 45 45 44 44 44 44 43 43 43 44 44 45 46 46 47 48 48 48 49 49 50 51 52 53 53 54 55 56 56 57 57 57 58 58 59 59 59 60 60 61 61 61 61 62 62 62 62 63 63 64 64 64 64 65 65 65 65 65 65 64 64 64 64 64 64 64 64 64 64
37 37 38 38 38 39 39 40 40 40 41 41 42 42 42 42 42 42 42 42 42 42 42 42 42 43 43 44 44 45 45 46 47 47 48 49 49 50 51 52 52 53 54 54 55 55 56 56 56 56 57 57 58 58 59 59 59 59 59 59 60 60 60 61 61 62 62 62 63 63 63 63 63 63 62 62 62 61 61 62 62 62 61 61 61
35 36 36 36 37 37 38 38 38 38 39 39 40 40 40 40 40 41 41 41 41 41 41 41 41 42 43 43 43 44 45 46 46 46 47 48 49 50 50 51 51 52 52 53 53 53 53 54 54 55 55 55 56 57 57 58 58 58 58 58 58 58 59 59 59 60 60 61 61 62 62 62 62 61 61 60 60 59 59 59 59 59 59 59 59
34 34 35 35 35 36 36 36 36 37 37 38 38 38 39 39 39 39 39 39 40 40 40 41 41 42 43 43 43 44 44 45 46 46 47 47 48 49 49 50 50 51 51 51 51 51 51 52 52 53 53 54 54 55 55 55 56 56 57 57 57 58 58 58 58 58 58 59 59 60 60 60 60 60 59 59 58 58 58 57 57 58 58 58 58
32 33 33 34 34 35 35 35 35 36 36 36 37 37 38 38 38 38 39 39 39 40 41 41 41 42 43 43 43 44 44 45 45 45 46 46 47 48 48 49 49 49 49 49 49 49 49 50 50 51 51 52 52 52 53 54 54 55 56 56 56 56 56 56 56 56 56 57 57 57 58 58 58 57 57 57 57 56 56 56 56 56 56 56 56
32 32 33 33 34 34 35 35 35 35 36 36 37 37 38 38 38 38 38 39 39 40 41 41 41 42 42 42 43 44 44 44 45 45 45 45 46 46 47 47 47 47 47 47 47 47 47 48 49 49 49 49 50 50 51 52 53 54 54 54 55 55 54 54 54 54 54 54 55 55 55 55 55 55 54 54 54 54 54 54 54 54 54 54 54
32 32 33 33 34 34 35 35 35 36 36 36 37 37 38 38 38 38 38 39 39 40 40 41 41 42 42 42 43 43 43 43 44 44 44 44 44 45 45 46 46 46 46 46 45 45 46 46 47 47 47 48 49 49 51 52 52 53 53 53 53 53 52 52 52 52 52 52 52 52 52 51 51 51 51 52 52 52 52 51 52 52 52 52 52
32 32 33 33 34 34 35 35 36 36 36 37 37 37 37 37 38 38 38 39 39 40 40 41 41 41 41 42 42 42 42 42 43 43 43 43 43 43 44 44 44 44 44 44 44 44 44 45 45 45 46 47 48 49 50 51 51 51 51 51 51 51 50 50 50 50 50 50 49 49 49 49 48 48 49 49 49 49 50 50 50 50 50 51 51
32 33 33 33 34 34 34 35 35 36 36 37 37 37 37 37 37 38 38 39 39 40 40 41 41 41 41 41 41 41 41 41 42 42 42 42 42 42 42 42 42 42 42 42 42 42 42 43 43 44 45 46 47 48 49 49 50 49 49 49 49 49 49 48 48 48 48 48 48 47 47 47 47 46 46 47 47 47 48 48 49 49 49 49 49
33 33 33 33 33 34 34 34 35 35 36 36 36 37 37 37 37 38 38 39 39 40 40 40 40 41 40 40 41 41 40 40 40 41 41 41 41 41 41 41 41 40 40 40 40 40 41 42 42 43 44 45 46 47 48 48 48 48 48 48 48 47 47 47 47 47 47 47 46 46 46 45 45 45 45 46 46 46 47 47 47 47 47 47 47
33 33 33 33 34 34 34 34 35 35 35 36 36 36 36 37 37 37 38 39 39 39 39 40 40 40 40 40 40 40 40 39 39 39 39 39 39 39 39 39 39 39 38 38 38 39 40 40 41 42 43 44 45 46 47 47 47 47 47 47 46 46 46 46 46 46 46 45 45 45 44 44 44 44 44 45 45 45 45 45 45 45 45 45 45
33 34 34 34 35 35 35 35 35 35 35 35 36 36 36 36 37 37 38 38 38 38 39 39 40 40 40 39 39 39 38 38 38 38 38 38 38 38 38 38 37 37 37 37 37 38 39 39 40 41 42 43 44 45 46 46 46 46 46 46 45 45 45 45 45 45 45 44 44 43 43 43 43 43 43 43 43 43 43 43 43 42 42 42 42
Wind_Direction
266 266 266 265 264 263 262 260 259 258 258 258 258 258 258 258 258 258 259 260 260 260 260 260 260 260 260 260 261 261 261 262 262 262 262 262 262 262 262 262 262 262 262 262 262 263 263 263 263 264 264 264 265 265 265 266 266 267 267 267 267 267 267 267 266 265 265 264 264 264 264 264 264 264 265 265 265 265 265 265 265 265 265 265 265
266 266 266 266 265 265 265 264 262 261 260 259 258 259 259 259 259 258 258 258 259 260 260 261 261 261 260 260 260 260 260 261 261 261 262 262 262 262 262 262 262 262 262 262 262 263 263 263 263 264 264 265 265 266 266 267 267 268 268 268 268 268 268 268 267 267 266 266 265 265 265 265 265 265 265 265 265 265 265 265 265 265 265 265 265
266 265 265 265 265 265 265 264 264 263 262 261 260 260 259 259 259 259 258 258 258 258 259 259 260 260 261 260 260 260 261 261 261 261 261 261 262 262 262 262 262 262 262 263 263 263 263 263 264 264 265 265 266 267 267 268 268 268 269 269 268 268 268 268 268 268 267 267 267 266 266 266 266 266 266 266 266 266 266 266 266 266 266 266 266
265 265 265 265 265 264 264 264 264 264 264 263 263 262 261 260 259 259 259 258 258 258 257 257 258 258 259 260 260 261 261 262 262 262 263 263 263 263 263 262 262 262 262 263 263 263 264 264 264 265 265 266 267 267 268 268 268 268 268 268 268 268 268 268 268 268 267 267 267 267 266 266 266 266 266 266 266 266 267 267 267 267 267 267 267
265 265 265 265 265 265 264 264 264 263 264 264 264 263 262 262 261 260 260 259 259 258 258 257 257 257 258 258 259 260 260 261 262 263 264 264 265 265 265 265 264 264 264 264 264 264 265 265 266 266 267 267 268 268 268 268 268 268 268 268 268 268 267 268 268 267 267 267 267 266 266 266 266 266 266 266 266 267 267 267 267 267 267 267 267
266 265 265 265 265 264 264 264 264 264 263 264 264 264 263 263 262 262 261 261 260 260 259 259 258 258 258 259 259 259 260 261 262 262 263 264 264 265 265 266 266 266 267 267 267 267 267 268 268 268 269 269 269 269 269 269 269 269 269 268 268 268 268 267 267 267 267 267 267 267 266 266 266 266 266 266 266 267 267 267 267 267 267 268 268
266 266 265 265 265 265 265 264 264 264 264 264 264 264 264 264 263 263 263 262 262 261 261 260 260 260 260 260 260 260 261 261 262 262 262 263 263 264 265 265 266 266 267 267 268 268 269 269 269 269 270 270 270 270 270 270 270 270 269 269 269 268 268 268 268 268 268 268 267 267 267 267 267 267 267 267 267 268 268 268 268 268 268 269 269
266 266 265 265 265 265 265 265 265 264 264 264 264 264 264 264 264 264 264 263 263 262 262 262 261 261 261 261 261 261 261 262 262 262 263 263 263 264 264 265 265 265 266 266 267 267 268 268 269 269 270 270 270 270 270 270 270 270 269 269 269 269 269 269 269 269 269 269 269 269 269 269 269 269 269 269 269 269 268 268 269 269 269 269 270
267 267 266 266 265 264 264 264 265 265 265 264 264 264 264 264 264 264 264 264 264 263 263 262 262 261 261 261 261 261 262 262 262 263 263 263 264 264 264 265 265 265 266 266 267 267 267 268 268 269 269 270 270 270 270 270 270 270 270 269 269 269 269 270 270 270 270 270 270 270 270 270 270 270 270 270 270 270 270 270 270 270 270 271 271
267 267 267 267 266 266 265 264 264 264 264 264 264 264 264 264 264 264 264 264 264 264 264 264 263 262 262 261 261 261 262 262 263 263 263 264 264 264 265 265 265 266 266 266 267 267 267 268 268 269 269 269 270 270 270 270 270 270 270 270 270 270 270 270 270 270 271 271 271 271 271 271 271 271 271 271 271 271 271 271 271 272 272 272 273
267 267 267 268 268 267 267 266 265 265 264 264 264 264 264 264 265 265 265 265 265 264 264 264 264 264 263 262 262 262 262 262 263 263 263 264 264 265 265 265 266 266 266 266 267 267 267 268 268 268 269 269 269 269 269 269 269 269 269 269 269 269 270 270 270 270 271 271 271 271 272 272 272 272 272 272 272 272 272 273 273 273 273 273 273
267 267 267 268 268 268 268 268 268 267 266 266 265 265 265 265 265 265 265 265 264 264 264 264 264 264 264 264 263 263 263 263 263 264 264 264 265 265 265 266 266 266 267 267 267 267 268 268 268 268 269 269 269 269 269 269 269 269 269 269 269 269 269 270 270 270 271 271 271 271 272 272 272 272 272 273 273 273 273 273 273 274 274 274 274
268 268 267 267 267 268 268 268 268 268 268 268 268 267 267 266 266 266 266 265 265 265 264 264 264 264 264 263 263 263 264 264 264 264 264 265 265 266 266 266 267 267 267 268 268 268 268 268 268 269 269 269 269 269 269 269 269 269 269 269 269 269 270 270 270 270 271 271 271 272 272 272 272 272 273 273 273 273 274 274 274 274 274 274 274
268 267 268 267 267 267 267 267 267 267 268 268 268 268 268 268 268 267 267 267 266 266 266 265 265 265 264 264 264 264 264 264 264 265 265 265 265 266 266 266 266 267 267 267 267 268 268 268 268 268 269 269 269 269 269 269 269 269 270 270 270 270 270 270 270 271 271 271 271 272 272 272 273 273 273 273 274 274 274 274 274 274 273 273 273
268 268 267 267 267 267 267 267 266 266 266 267 267 267 267 268 268 268 267 267 267 267 266 266 266 265 265 265 265 265 265 265 265 265 266 265 265 265 265 265 266 266 266 266 267 267 267 268 268 268 268 269 269 269 269 269 270 270 270 270 270 271 271 271 271 271 272 272 272 272 272 273 273 273 273 274 274 274 273 273 274 274 274 274 274
268 269 269 268 268 268 268 267 267 267 266 266 266 266 266 266 267 267 267 267 267 267 267 266 266 266 266 266 265 265 265 265 265 265 265 265 265 265 265 265 265 265 266 266 266 267 267 267 267 268 268 268 268 269 269 269 269 270 270 270 270 271 271 271 271 272 272 272 272 272 273 273 273 273 273 273 273 273 273 274 274 274 274 274 274
268 268 268 269 269 269 269 269 269 269 268 268 267 267 267 266 266 266 266 267 267 267 267 267 267 267 266 266 266 266 265 265 265 265 265 265 265 265 265 265 265 265 266 266 266 266 267 267 267 267 267 267 267 268 268 268 269 269 269 269 270 270 270 271 271 271 271 272 272 272 272 273 273 273 273 273 273 273 274 274 274 274 274 274 274
267 266 266 267 267 267 268 268 269 269 269 269 269 268 267 267 266 266 266 266 266 266 266 266 267 267 266 266 266 266 266 266 266 265 265 265 265 265 265 265 265 266 266 266 266 266 266 266 266 267 267 267 267 267 268 268 268 269 269 269 269 270 270 270 270 271 271 271 272 272 272 272 273 273 273 273 273 273 273 274 273 273 273 273 273
266 266 266 265 265 266 266 266 267 268 268 268 268 268 268 267 267 266 266 266 265 265 265 265 265 265 265 266 266 266 266 266 266 266 266 266 266 266 266 266 266 266 266 266 266 266 266 266 267 267 267 268 268 268 268 268 268 269 269 269 269 270 270 270 270 271 271 272 272 272 272 272 272 272 273 273 273 273 273 273 272 272 272 271 271
266 266 266 265 265 265 265 266 266 267 267 268 268 268 268 268 268 267 267 266 266 266 265 265 264 264 264 265 265 265 266 266 266 267 267 267 267 267 267 267 267 267 267 267 267 267 267 267 267 268 268 268 268 268 269 269 269 269 269 270 270 270 270 270 271 271 272 272 272 272 272 272 272 272 272 272 272 272 272 272 271 271 271 271 271
266 266 266 266 266 266 266 266 266 267 267 268 268 268 268 268 268 268 267 267 267 267 266 266 266 265 265 265 265 266 266 266 266 266 266 266 266 266 267 267 268 268 268 268 268 268 268 268 268 268 268 269 269 269 270 270 270 271 271 271 271 271 271 271 271 271 271 271 272 272 272 272 272 272 272 272 272 272 271 271 271 271 271 271 271
267 267 267 266 266 266 267 267 267 267 268 268 268 267 267 267 267 267 267 267 267 267 267 267 267 267 267 267 267 267 267 267 267 266 266 266 266 266 266 266 267 267 267 267 267 268 268 268 268 269 269 269 270 270 271 271 271 271 271 271 271 271 271 271 271 271 271 271 271 272 272 272 272 272 272 271 271 271 271 271 271 272 272 271 271
268 267 267 267 266 266 267 267 267 267 267 267 267 267 267 267 267 266 266 266 266 266 266 267 267 268 268 268 268 268 267 267 266 266 266 266 266 266 266 266 266 266 266 267 267 267 267 268 268 268 269 269 269 270 270 270 270 270 270 271 271 271 271 271 272 272 272 272 271 271 271 271 271 271 271 272 272 272 272 272 271 271 270 270 270
270 269 268 268 267 267 266 266 266 266 266 266 266 266 266 266 266 267 267 267 267 267 268 268 268 268 268 268 268 268 267 266 266 265 265 265 265 265 265 265 265 265 266 266 266 267 267 268 268 268 268 269 269 269 269 269 270 270 271 271 271 271 271 271 271 271 271 271 272 272 272 272 272 272 272 272 272 272 272 271 271 271 270 270 269
271 271 270 270 269 268 268 267 267 267 266 266 266 266 266 267 267 268 268 269 270 270 270 270 270 269 269 268 267 267 266 266 266 266 266 266 265 265 265 265 265 265 265 266 266 267 268 268 268 268 268 269 269 270 270 270 270 270 270 270 270 271 271 271 271 271 271 271 272 272 272 272 272 272 272 272 272 271 271 271 271 270 270 270 269
272 272 271 271 270 270 270 269 269 269 268 268 268 268 269 269 270 270 271 271 272 272 272 272 271 271 270 269 268 267 266 266 266 267 266 266 266 265 265 265 265 265 266 267 267 267 268 268 269 269 270 270 271 271 271 271 271 271 271 271 271 271 272 272 272 272 272 272 271 271 271 272 272 272 273 273 273 273 273 272 272 272 271 271 270
272 272 272 271 271 271 271 271 271 271 271 271 271 271 271 271 272 272 272 273 273 273 273 273 273 272 271 270 269 268 267 267 267 268 268 268 267 267 266 266 266 266 267 267 267 268 269 270 270 271 271 271 271 272 272 272 272 272 272 272 272 272 272 272 273 273 273 273 273 273 272 272 273 273 273 273 274 274 274 274 274 274 274 273 273
273 273 272 272 271 271 271 272 272 272 272 272 272 272 272 272 272 272 273 273 274 274 274 274 273 273 272 271 271 270 269 269 269 269 269 269 269 269 269 269 269 269 269 269 270 271 272 273 273 273 273 273 273 274 274 274 274 274 274 274 274 274 274 274 274 274 274 274 274 274 274 274 274 274 274 274 274 274 274 274 274 274 274 274 274
273 273 272 272 271 271 271 271 271 271 271 272 272 272 272 272 273 273 273 274 274 274 274 274 274 273 272 272 271 271 271 270 270 270 270 271 271 271 272 272 272 272 272 273 274 274 274 274 274 274 275 275 275 275 275 275 275 275 275 275 275 275 275 275 275 275 275 274 274 274 274 274 274 274 274 273 273 273 273 273 273 273 273 273 273
272 272 271 271 271 271 271 271 271 271 272 272 272 273 273 273 273 274 274 274 274 274 274 274 273 273 273 272 272 272 272 272 272 272 272 273 273 274 274 274 274 275 275 275 275 275 275 275 276 276 276 276 276 276 276 276 276 276 276 277 277 277 277 276 276 276 276 276 275 275 275 275 275 274 274 274 274 273 273 273 272 272 272 272 272
273 272 272 272 272 272 272 272 273 273 273 273 273 274 274 274 274 274 275 275 274 274 273 273 272 272 273 273 273 273 274 274 275 275 275 275 275 275 275 275 276 276 276 276 275 275 275 276 276 276 275 275 275 275 276 276 276 277 277 277 277 278 278 278 277 277 277 277 277 276 276 276 275 275 275 275 275 274 274 274 273 272 272 272 271
275 274 274 275 275 274 274 274 274 274 274 274 273 273 274 275 275 275 275 274 274 273 273 272 272 272 272 273 274 275 275 276 276 276 276 275 275 275 275 275 276 276 276 276 276 276 276 276 276 276 276 276 276 276 276 277 277 277 277 277 278 278 278 278 278 278 278 278 278 278 277 277 276 276 275 275 275 274 274 274 274 273 273 272 271
277 277 277 277 277 277 276 276 275 275 274 274 274 274 274 274 275 275 274 274 273 273 273 273 273 274 274 274 274 275 275 276 276 276 276 275 275 274 275 275 275 275 275 276 276 276 277 276 276 276 277 277 278 278 278 278 278 278 278 278 278 278 279 279 279 279 279 279 279 279 279 279 278 278 277 276 276 275 275 275 274 274 273 273 272
279 279 279 279 278 278 278 277 276 276 276 276 276 276 275 275 274 274 274 274 274 274 274 274 274 274 274 274 274 274 275 276 276 277 277 277 276 276 275 275 275 275 275 275 275 276 276 276 276 277 277 277 278 278 278 279 279 279 279 279 279 279 279 279 279 279 279 279 280 280 280 279 279 279 279 278 278 277 277 276 276 275 275 274 273
281 280 280 279 279 278 278 277 277 277 277 277 277 277 276 276 275 274 274 274 275 275 276 276 275 274 273 273 273 274 275 275 276 277 277 277 277 277 276 276 275 275 275 275 275 275 275 275 276 276 277 277 278 278 278 279 279 280 280 280 281 280 280 280 280 280 280 279 279 279 279 279 279 279 279 279 279 278 278 277 277 277 276 276 275
281 281 280 279 279 279 278 279 279 279 279 279 278 278 277 277 276 276 275 275 275 275 276 276 276 276 276 276 276 276 276 277 277 277 277 277 277 277 277 276 276 277 277 277 276 276 276 276 277 277 278 278 279 280 280 280 281 281 282 282 282 282 282 282 282 282 281 281 281 280 280 280 280 280 279 279 279 279 279 278 278 278 277 277 277
282 282 281 280 280 280 280 280 280 280 280 280 279 279 278 278 278 278 277 277 277 276 275 275 275 276 277 277 278 278 278 278 278 279 279 279 279 279 279 279 279 279 279 279 279 280 280 280 281 281 281 282 282 282 282 282 283 283 283 283 283 283 283 283 283 283 283 282 282 282 282 281 281 280 280 280 279 279 279 278 278 278 277 277 277
284 283 282 282 282 282 282 282 282 282 281 281 281 281 281 281 281 280 280 280 279 278 278 277 276 275 275 276 277 278 279 279 279 279 279 279 280 280 281 281 281 282 282 282 282 283 283 283 284 284 284 284 283 283 283 283 283 283 283 284 284 284 284 284 284 283 283 283 283 283 282 282 282 281 281 281 280 280 279 279 278 278 277 277 276
286 285 285 285 286 285 285 284 284 283 283 282 282 283 283 283 282 282 282 282 281 281 280 279 278 277 277 277 277 278 279 280 280 280 279 279 280 281 281 282 282 283 283 283 283 283 283 283 284 283 283 283 283 283 283 284 284 284 284 284 284 284 284 284 284 284 284 284 284 283 283 283 283 282 282 282 282 281 281 280 279 279 278 277 277
289 289 289 289 288 288 287 286 286 285 285 285 284 284 284 283 283 283 283 283 283 283 282 282 281 280 279 279 279 280 280 280 281 281 281 281 281 282 282 282 283 283 283 283 283 283 283 283 283 283 283 283 283 284 284 284 285 285 285 285 285 285 285 285 285 285 285 285 285 285 284 284 283 283 283 282 282 282 281 281 280 279 279 278 278
292 292 292 291 290 289 289 289 289 288 287 287 286 285 285 285 285 285 285 285 285 285 284 284 283 282 281 281 281 281 281 282 282 282 283 283 282 282 282 282 283 283 283 283 284 284 283 283 283 284 284 284 285 286 286 286 287 287 287 287 287 287 288 288 288 288 287 287 287 287 286 286 285 285 284 283 283 282 282 281 281 280 279 279 278
296 295 294 294 293 292 292 291 290 289 289 288 288 288 287 287 287 287 287 287 287 286 286 285 284 284 284 284 284 284 284 283 283 283 283 283 283 283 283 283 283 283 283 283 284 284 284 285 285 286 286 287 287 288 288 288 289 289 289 290 290 290 290 290 290 290 290 290 289 289 289 288 288 287 286 286 285 284 283 283 282 282 281 280 279
299 298 297 296 295 294 293 292 292 291 290 290 290 290 289 289 289 289 289 289 288 288 287 287 286 286 286 286 286 286 285 285 285 284 284 284 284 284 284 284 284 284 284 284 284 285 285 286 286 287 287 288 288 288 289 289 290 291 292 292 292 292 292 291 291 291 291 291 290 290 290 289 289 288 288 287 286 286 285 284 284 283 283 282 281
300 299 298 297 296 295 294 294 293 293 292 292 291 291 291 290 290 290 290 289 289 288 288 288 287 287 287 287 287 287 286 286 286 286 286 285 285 285 285 284 284 284 285 285 285 286 286 286 287 287 287 287 288 289 290 291 292 292 293 293 294 293 293 292 292 292 292 291 291 290 290 289 289 288 288 287 287 286 286 285 284 284 284 283 283
301 300 299 298 297 297 296 296 295 294 294 293 293 293 292 292 292 292 291 290 290 289 289 289 289 288 288 288 288 287 287 287 287 287 286 286 285 285 285 285 285 285 285 286 286 286 286 287 287 287 288 289 290 291 292 293 293 294 294 295 294 294 294 293 293 293 293 292 291 291 290 289 289 288 288 287 287 287 286 286 285 285 284 284 284
302 301 300 299 299 298 297 297 296 295 295 294 294 294 294 293 293 293 292 292 291 290 290 290 289 289 289 289 288 288 288 288 287 287 286 286 285 285 285 285 286 286 287 287 287 287 287 288 288 289 290 291 292 293 294 294 295 295 296 296 295 295 295 294 294 294 294 293 292 291 290 290 289 289 289 288 288 288 287 287 286 286 285 285 284
303 302 301 300 299 299 298 298 298 297 297 297 296 296 295 295 295 294 293 293 292 291 291 291 290 290 290 289 289 288 288 288 287 287 286 286 286 285 285 286 286 287 287 287 288 288 289 289 290 291 292 293 294 295 295 296 296 296 297 297 296 296 296 296 296 296 295 294 294 293 292 292 291 291 290 290 289 289 289 288 288 287 286 286 285
304 304 303 302 302 301 301 300 300 299 299 299 299 298 297 297 296 295 294 294 293 292 292 292 291 291 291 290 289 289 288 288 287 287 287 286 286 286 286 286 287 287 287 288 288 289 290 291 292 293 294 295 295 296 297 297 297 298 298 298 298 297 297 298 298 297 297 296 296 295 295 294 293 293 292 291 291 290 290 289 289 288 287 287 286
308 307 307 306 305 304 303 303 302 301 301 300 300 300 299 299 298 297 295 295 294 294 294 293 293 292 291 291 290 290 289 289 288 288 287 287 287 287 287 288 288 288 289 289 290 290 291 293 294 295 295 296 297 298 298 298 299 300 300 299 299 299 300 300 299 299 299 298 298 297 297 296 295 295 294 294 293 292 292 291 290 289 289 288 288
312 311 310 308 307 306 306 305 304 303 303 302 302 301 300 299 298 297 296 295 295 295 295 294 293 293 292 292 292 291 291 290 289 289 289 289 289 289 289 289 290 290 290 291 292 292 293 294 295 296 297 298 299 299 299 300 301 301 301 301 301 301 301 301 301 300 300 300 300 299 299 298 298 297 296 295 294 293 292 292 291 290 290 289 289
314 312 311 310 309 309 308 307 307 306 305 303 302 301 300 300 299 298 297 297 297 296 296 295 294 294 294 294 293 293 292 292 291 291 290 290 290 290 290 291 291 292 292 293 293 294 295 296 297 298 298 299 300 300 301 302 302 302 302 302 303 303 303 302 302 301 301 301 301 301 300 300 299 298 297 296 295 294 293 292 291 290 290 289 289
Height
10196 10196 10196 10197 10198 10200 10201 10203 10203 10203 10203 10202 10202 10201 10201 10202 10203 10203 10202 10202 10201 10201 10201 10201 10201 10201 10202 10203 10203 10202 10202 10202 10201 10202 10203 10205 10205 10205 10206 10206 10207 10208 10208 10208 10209 10208 10208 10209 10209 10208 10206 10207 10208 10208 10209 10209 10209 10210 10211 10212 10213 10213 10212 10212 10217 10223 10223 10223 10224 10222 10221 10220 10220 10221 10221 10220 10222 10223 10223 10225 10227 10229 10228 10227 10225
10179 10179 10179 10179 10180 10180 10182 10183 10184 10185 10185 10185 10185 10185 10185 10186 10186 10186 10187 10186 10186 10186 10186 10185 10185 10186 10186 10187 10187 10186 10186 10186 10186 10186 10188 10189 10189 10189 10190 10190 10191 10191 10191 10192 10192 10191 10191 10192 10192 10191 10189 10190 10192 10192 10193 10193 10193 10194 10195 10195 10195 10195 10193 10193 10197 10202 10204 10204 10205 10205 10205 10204 10203 10204 10203 10203 10204 10205 10206 10207 10209 10210 10210 10209 10208
10161 10162 10162 10163 10163 10164 10164 10165 10165 10165 10165 10166 10167 10168 10169 10169 10169 10169 10170 10169 10170 10171 10170 10170 10169 10169 10169 10169 10169 10168 10169 10169 10169 10170 10171 10172 10173 10173 10173 10173 10174 10174 10174 10175 10175 10174 10175 10176 10176 10174 10173 10174 10176 10176 10177 10177 10177 10177 10177 10177 10177 10177 10176 10175 10177 10182 10184 10184 10186 10187 10187 10187 10186 10186 10185 10184 10185 10186 10186 10187 10189 10190 10191 10190 10190
10144 10144 10145 10145 10146 10147 10148 10148 10148 10147 10147 10147 10148 10149 10150 10151 10151 10152 10152 10152 10153 10154 10154 10154 10153 10153 10152 10152 10151 10151 10151 10150 10150 10152 10154 10154 10155 10156 10156 10157 10158 10158 10158 10158 10158 10157 10158 10159 10159 10157 10156 10158 10160 10160 10160 10161 10160 10160 10160 10159 10159 10159 10157 10156 10158 10161 10162 10164 10167 10168 10167 10167 10168 10168 10167 10165 10165 10166 10166 10167 10169 10170 10170 10169 10169
10128 10128 10128 10128 10129 10129 10130 10131 10131 10131 10130 10130 10130 10130 10131 10132 10132 10133 10134 10135 10136 10137 10137 10137 10137 10137 10136 10136 10136 10135 10135 10134 10134 10136 10137 10137 10138 10138 10139 10140 10141 10141 10142 10142 10141 10141 10142 10143 10142 10140 10140 10142 10143 10143 10143 10143 10143 10142 10143 10142 10141 10139 10138 10138 10139 10139 10141 10143 10146 10147 10147 10147 10148 10148 10147 10146 10146 10147 10148 10148 10148 10148 10148 10147 10147
10112 10112 10111 10111 10112 10112 10113 10113 10114 10114 10114 10114 10113 10113 10113 10113 10114 10115 10117 10118 10119 10119 10120 10119 10119 10120 10120 10121 10121 10121 10120 10120 10120 10121 10121 10121 10121 10121 10122 10122 10123 10123 10123 10123 10123 10123 10124 10124 10123 10122 10122 10123 10124 10123 10123 10123 10123 10124 10124 10122 10120 10119 10119 10119 10118 10117 10119 10121 10124 10125 10127 10127 10127 10127 10127 10127 10127 10127 10128 10127 10127 10126 10125 10124 10125
10096 10096 10096 10095 10095 10095 10096 10096 10097 10097 10098 10098 10098 10097 10097 10097 10097 10098 10100 10101 10102 10102 10102 10102 10103 10104 10105 10105 10105 10105 10105 10104 10104 10104 10104 10104 10105 10105 10105 10105 10106 10106 10106 10105 10105 10104 10105 10105 10104 10103 10103 10103 10103 10102 10102 10102 10103 10103 10103 10101 10099 10098 10097 10097 10096 10096 10097 10099 10101 10104 10105 10105 10105 10106 10106 10106 10106 10107 10107 10104 10103 10103 10104 10105 10106
10081 10081 10081 10081 10080 10079 10079 10079 10079 10080 10081 10081 10082 10082 10081 10081 10081 10082 10083 10084 10084 10085 10085 10086 10087 10088 10088 10088 10088 10088 10088 10087 10087 10087 10087 10087 10088 10088 10088 10088 10089 10089 10089 10088 10087 10087 10087 10086 10085 10085 10084 10084 10083 10082 10082 10082 10082 10082 10082 10079 10077 10076 10075 10075 10075 10075 10076 10077 10079 10081 10082 10082 10084 10084 10084 10084 10084 10084 10082 10079 10081 10084 10084 10083 10085
10065 10064 10064 10065 10065 10065 10065 10064 10064 10063 10064 10064 10064 10065 10065 10065 10065 10065 10066 10067 10067 10067 10068 10069 10070 10071 10071 10071 10071 10071 10070 10070 10070 10070 10070 10070 10070 10071 10071 10071 10071 10071 10071 10070 10069 10069 10068 10068 10067 10065 10064 10064 10063 10062 10062 10061 10061 10061 10060 10058 10057 10056 10055 10054 10054 10055 10055 10055 10057 10058 10059 10061 10062 10061 10061 10060 10059 10058 10057 10057 10060 10062 10060 10060 10064
10050 10049 10048 10048 10048 10048 10049 10049 10049 10049 10049 10048 10048 10048 10048 10048 10048 10049 10049 10049 10050 10050 10051 10051 10052 10053 10054 10054 10054 10053 10053 10053 10053 10053 10053 10053 10053 10053 10053 10053 10053 10053 10053 10052 10051 10051 10050 10049 10048 10046 10045 10045 10044 10043 10042 10041 10041 10040 10039 10038 10037 10036 10035 10035 10035 10034 10034 10035 10036 10036 10037 10039 10040 10038 10036 10036 10034 10033 10034 10035 10037 10039 10039 10039 10043
10035 10034 10032 10031 10031 10031 10032 10032 10033 10034 10034 10033 10033 10033 10032 10032 10032 10032 10032 10033 10033 10033 10034 10034 10035 10035 10036 10036 10036 10036 10036 10036 10036 10036 10036 10036 10036 10036 10036 10036 10035 10035 10035 10034 10033 10032 10031 10030 10029 10027 10026 10025 10024 10023 10022 10021 10021 10020 10019 10019 10018 10017 10016 10015 10015 10014 10014 10014 10014 10014 10015 10017 10017 10014 10013 10012 10011 10010 10011 10012 10014 10017 10018 10018 10019
10020 10019 10018 10017 10015 10014 10014 10014 10015 10016 10016 10017 10017 10017 10017 10017 10016 10016 10016 10016 10017 10017 10017 10018 10018 10018 10018 10019 10019 10019 10019 10019 10019 10019 10019 10019 10019 10019 10018 10018 10017 10016 10016 10015 10015 10014 10012 10011 10010 10008 10007 10005 10004 10003 10002 10001 10001 9999 9999 9998 9998 9998 9996 9995 9995 9995 9994 9994 9994 9994 9995 9994 9993 9992 9992 9990 9989 9989 9990 9991 9994 9995 9995 9995 9996
10003 10003 10003 10002 10001 9999 9998 9997 9997 9997 9998 9998 9999 10000 10000 10000 10000 10000 10000 10000 10000 10001 10001 10001 10002 10002 10002 10002 10002 10002 10002 10002 10002 10002 10002 10003 10003 10002 10000 9999 9998 9998 9997 9996 9995 9994 9993 9992 9991 9989 9987 9986 9985 9983 9982 9981 9980 9980 9979 9979 9979 9979 9977 9975 9975 9975 9975 9975 9974 9975 9974 9972 9971 9972 9970 9968 9967 9969 9970 9970 9971 9971 9972 9974 9974
9987 9987 9986 9986 9986 9985 9984 9983 9982 9982 9981 9981 9982 9982 9982 9983 9983 9984 9984 9984 9984 9984 9984 9985 9985 9985 9985 9985 9985 9985 9985 9985 9985 9985 9986 9986 9986 9984 9983 9981 9980 9979 9978 9977 9976 9975 9974 9973 9971 9970 9968 9966 9965 9964 9962 9961 9960 9960 9960 9960 9960 9959 9957 9956 9955 9954 9955 9955 9955 9955 9953 9951 9951 9950 9949 9947 9947 9949 9948 9947 9948 9948 9949 9951 9951
9970 9970 9970 9969 9969 9969 9969 9968 9968 9967 9967 9967 9967 9967 9967 9967 9967 9967 9968 9968 9968 9968 9968 9968 9969 9969 9969 9968 9968 9968 9968 9968 9967 9968 9969 9969 9967 9966 9965 9964 9962 9961 9960 9959 9958 9956 9955 9954 9953 9951 9949 9948 9946 9944 9943 9942 9941 9941 9941 9940 9940 9939 9939 9937 9935 9934 9935 9935 9935 9935 9933 9932 9931 9929 9929 9928 9928 9927 9924 9924 9926 9927 9927 9929 9928
9955 9953 9952 9952 9952 9952 9952 9952 9952 9952 9952 9952 9952 9953 9953 9952 9952 9952 9951 9951 9952 9952 9952 9952 9952 9952 9952 9952 9951 9951 9951 9950 9950 9951 9952 9951 9949 9948 9947 9946 9945 9943 9941 9940 9939 9938 9937 9936 9934 9933 9931 9929 9927 9926 9925 9924 9924 9924 9923 9922 9922 9921 9921 9919 9916 9915 9916 9916 9916 9915 9913 9912 9911 9910 9909 9908 9908 9907 9904 9905 9907 9906 9906 9907 9906
9941 9939 9938 9937 9936 9936 9935 9935 9934 9935 9935 9936 9937 9937 9937 9937 9937 9937 9936 9936 9935 9935 9935 9935 9935 9935 9935 9934 9934 9934 9933 9933 9933 9933 9934 9934 9931 9930 9929 9928 9927 9926 9924 9922 9921 9919 9918 9918 9916 9915 9914 9911 9910 9909 9908 9908 9907 9907 9906 9906 9905 9905 9905 9902 9899 9898 9898 9898 9898 9898 9895 9893 9891 9891 9890 9889 9888 9887 9886 9889 9889 9886 9886 9888 9888
9927 9925 9924 9923 9922 9922 9921 9919 9919 9918 9919 9919 9920 9921 9921 9922 9922 9922 9922 9921 9921 9920 9919 9919 9918 9918 9917 9917 9916 9916 9915 9915 9915 9915 9916 9916 9914 9911 9910 9909 9908 9907 9906 9905 9904 9902 9901 9899 9898 9897 9896 9894 9893 9892 9891 9891 9891 9891 9890 9889 9889 9889 9888 9885 9882 9882 9881 9880 9881 9881 9879 9877 9874 9872 9871 9871 9870 9869 9870 9872 9870 9868 9870 9870 9868
9913 9912 9911 9910 9909 9908 9907 9906 9904 9904 9904 9904 9904 9905 9905 9906 9906 9907 9906 9906 9906 9906 9905 9904 9903 9902 9901 9900 9900 9898 9897 9897 9896 9895 9896 9896 9895 9892 9890 9889 9889 9888 9888 9887 9886 9885 9884 9882 9881 9880 9879 9877 9877 9876 9875 9875 9875 9874 9873 9872 9873 9873 9870 9867 9866 9866 9865 9865 9864 9863 9861 9860 9858 9856 9855 9854 9853 9853 9854 9854 9851 9851 9853 9853 9850
9898 9898 9897 9896 9896 9895 9893 9892 9891 9890 9890 9890 9890 9890 9890 9890 9890 9891 9891 9891 9890 9890 9890 9890 9889 9888 9887 9886 9885 9883 9882 9880 9879 9878 9877 9877 9877 9874 9871 9870 9870 9871 9870 9870 9869 9868 9867 9866 9865 9864 9862 9861 9860 9859 9857 9857 9857 9858 9857 9857 9857 9855 9853 9852 9852 9851 9849 9849 9847 9845 9844 9843 9841 9841 9839 9838 9836 9835 9836 9836 9834 9833 9835 9835 9834
9884 9884 9883 9883 9882 9881 9880 9879 9878 9877 9877 9876 9876 9877 9876 9876 9876 9876 9876 9876 9875 9875 9875 9874 9874 9873 9872 9871 9870 9868 9866 9864 9862 9861 9860 9859 9860 9859 9856 9854 9854 9855 9855 9854 9853 9851 9850 9849 9848 9847 9846 9845 9843 9842 9841 9841 9841 9841 9841 9841 9840 9838 9836 9837 9837 9835 9834 9834 9831 9830 9828 9826 9824 9823 9822 9821 9819 9817 9817 9818 9818 9817 9817 9817 9817
9871 9871 9870 9870 9869 9867 9867 9866 9865 9864 9863 9863 9863 9863 9862 9862 9862 9862 9862 9862 9861 9861 9860 9860 9859 9858 9857 9856 9854 9852 9850 9848 9846 9845 9844 9844 9844 9845 9844 9842 9841 9841 9840 9839 9837 9836 9835 9834 9832 9831 9830 9829 9828 9828 9827 9826 9825 9824 9824 9824 9823 9822 9821 9821 9820 9818 9818 9818 9816 9814 9812 9809 9807 9806 9804 9803 9802 9801 9801 9802 9803 9802 9802 9801 9799
9859 9858 9858 9857 9856 9855 9854 9853 9852 9851 9851 9850 9849 9849 9849 9848 9848 9848 9848 9848 9848 9847 9847 9846 9845 9844 9843 9841 9839 9836 9834 9833 9831 9830 9830 9830 9830 9831 9831 9830 9828 9827 9825 9824 9823 9821 9820 9819 9818 9817 9816 9815 9814 9814 9813 9811 9809 9808 9808 9808 9808 9808 9806 9806 9805 9803 9801 9800 9799 9797 9796 9794 9792 9791 9788 9787 9786 9785 9785 9786 9786 9787 9787 9786 9784
9845 9844 9844 9844 9843 9843 9842 9841 9840 9840 9839 9838 9837 9836 9836 9835 9835 9834 9834 9833 9833 9833 9832 9832 9831 9830 9828 9826 9824 9821 9819 9818 9817 9817 9817 9817 9818 9818 9818 9816 9815 9813 9811 9809 9808 9807 9806 9805 9804 9803 9802 9800 9799 9798 9797 9796 9795 9795 9795 9794 9793 9792 9790 9790 9790 9789 9787 9784 9782 9781 9779 9778 9777 9776 9774 9773 9771 9770 9770 9769 9768 9769 9770 9770 9770
9832 9831 9831 9830 9830 9830 9829 9829 9828 9828 9827 9827 9826 9825 9824 9823 9822 9821 9820 9819 9819 9818 9817 9816 9815 9814 9813 9812 9810 9808 9806 9805 9804 9804 9804 9805 9805 9804 9804 9803 9801 9799 9797 9796 9795 9793 9792 9791 9789 9788 9786 9785 9785 9785 9784 9783 9782 9781 9780 9780 9778 9777 9775 9775 9774 9774 9774 9772 9770 9768 9765 9762 9761 9759 9758 9756 9755 9754 9754 9752 9752 9752 9752 9753 9754
9820 9819 9819 9818 9817 9817 9817 9816 9815 9815 9814 9814 9813 9813 9811 9810 9809 9808 9806 9805 9804 9803 9802 9801 9800 9799 9798 9797 9796 9794 9793 9793 9792 9791 9791 9791 9791 9790 9789 9788 9787 9786 9784 9783 9782 9780 9778 9776 9775 9774 9773 9773 9772 9771 9770 9769 9768 9766 9766 9765 9765 9764 9762 9761 9760 9759 9758 9757 9755 9754 9752 9748 9746 9744 9742 9739 9738 9736 9735 9734 9734 9734 9733 9734 9736
9808 9808 9808 9807 9806 9806 9805 9804 9804 9802 9802 9801 9801 9800 9799 9798 9797 9795 9794 9792 9791 9790 9788 9787 9785 9784 9783 9782 9781 9781 9781 9781 9780 9779 9778 9777 9776 9776 9775 9774 9774 9773 9772 9770 9768 9767 9766 9765 9764 9763 9761 9760 9758 9757 9756 9755 9754 9753 9752 9751 9751 9750 9748 9747 9745 9743 9742 9740 9738 9737 9736 9734 9732 9730 9728 9726 9724 9721 9718 9717 9717 9716 9714 9713 9716
9798 9798 9797 9796 9796 9795 9794 9793 9793 9792 9791 9790 9789 9788 9787 9786 9785 9784 9782 9781 9779 9777 9776 9774 9773 9771 9769 9768 9767 9767 9768 9768 9767 9766 9765 9764 9763 9761 9761 9761 9760 9759 9758 9757 9756 9756 9755 9754 9752 9750 9748 9746 9744 9743 9742 9741 9740 9739 9737 9736 9735 9734 9733 9732 9731 9729 9728 9726 9724 9722 9720 9718 9717 9716 9714 9713 9710 9707 9705 9704 9703 9701 9698 9697 9699
9789 9788 9787 9787 9786 9786 9785 9783 9782 9782 9781 9780 9779 9777 9776 9774 9773 9772 9771 9769 9768 9766 9764 9763 9761 9758 9756 9755 9754 9754 9755 9755 9755 9754 9753 9752 9751 9749 9748 9747 9746 9744 9744 9745 9745 9744 9742 9739 9738 9736 9735 9733 9731 9730 9728 9726 9725 9723 9723 9722 9721 9720 9719 9717 9716 9715 9714 9712 9710 9708 9706 9704 9702 9700 9699 9698 9695 9693 9691 9690 9689 9687 9685 9683 9684
9780 9779 9778 9777 9777 9776 9775 9774 9772 9772 9771 9770 9768 9766 9765 9763 9762 9761 9760 9758 9757 9756 9754 9752 9750 9747 9745 9744 9743 9742 9741 9742 9743 9742 9742 9741 9740 9738 9736 9734 9732 9731 9731 9732 9732 9731 9728 9726 9725 9724 9722 9721 9719 9717 9715 9714 9712 9711 9710 9708 9707 9705 9704 9703 9701 9699 9698 9696 9695 9693 9691 9689 9687 9685 9683 9682 9680 9677 9675 9675 9674 9672 9671 9670 9669
9770 9769 9768 9768 9767 9766 9765 9764 9762 9761 9760 9759 9758 9756 9754 9752 9751 9750 9749 9747 9746 9745 9744 9742 9739 9737 9735 9733 9732 9731 9730 9730 9730 9731 9731 9731 9729 9726 9724 9723 9722 9720 9719 9719 9719 9719 9717 9716 9714 9712 9710 9709 9707 9706 9704 9702 9701 9699 9697 9695 9694 9691 9690 9688 9686 9684 9682 9681 9679 9677 9675 9674 9672 9670 9668 9666 9664 9661 9659 9658 9657 9656 9656 9655 9654
9760 9759 9758 9757 9756 9755 9754 9753 9752 9751 9749 9748 9748 9746 9744 9742 9740 9739 9738 9737 9735 9734 9732 9731 9729 9727 9726 9724 9722 9720 9719 9719 9719 9719 9719 9720 9718 9716 9715 9714 9712 9710 9709 9708 9708 9707 9706 9705 9703 9700 9698 9697 9695 9694 9693 9691 9689 9687 9685 9683 9681 9679 9676 9674 9672 9670 9667 9665 9663 9661 9660 9658 9656 9655 9653 9651 9649 9647 9644 9642 9641 9640 9640 9639 9638
9749 9749 9748 9747 9746 9744 9743 9743 9742 9741 9739 9738 9737 9736 9735 9734 9731 9729 9728 9726 9725 9724 9722 9720 9719 9717 9716 9714 9712 9711 9709 9708 9708 9707 9708 9708 9707 9705 9706 9705 9702 9699 9699 9699 9698 9696 9695 9693 9691 9689 9687 9685 9683 9682 9680 9678 9677 9675 9673 9671 9669 9667 9664 9662 9659 9657 9654 9651 9649 9646 9644 9642 9640 9639 9637 9635 9633 9631 9629 9627 9626 9624 9624 9624 9622
9739 9739 9738 9738 9736 9735 9733 9732 9731 9730 9729 9728 9727 9726 9724 9723 9722 9720 9718 9716 9714 9713 9712 9711 9709 9708 9706 9704 9702 9701 9700 9699 9697 9697 9697 9697 9695 9694 9695 9695 9692 9690 9689 9689 9688 9687 9684 9682 9680 9679 9677 9675 9673 9671 9669 9666 9664 9662 9660 9658 9656 9654 9652 9650 9647 9645 9642 9639 9636 9633 9630 9628 9626 9624 9622 9620 9618 9616 9614 9612 9610 9609 9607 9607 9606
9731 9730 9729 9729 9728 9726 9724 9722 9721 9721 9719 9718 9717 9716 9714 9713 9712 9711 9709 9708 9706 9704 9702 9700 9699 9698 9697 9695 9694 9693 9692 9691 9689 9688 9687 9686 9684 9683 9684 9684 9682 9681 9680 9679 9678 9677 9675 9673 9671 9669 9667 9665 9663 9661 9658 9656 9653 9651 9648 9646 9644 9641 9639 9637 9634 9632 9629 9626 9624 9621 9618 9616 9613 9610 9608 9606 9603 9602 9600 9597 9595 9594 9592 9591 9590
9723 9722 9721 9720 9719 9717 9715 9714 9712 9711 9710 9709 9707 9706 9704 9703 9702 9700 9700 9699 9698 9696 9694 9692 9689 9687 9686 9685 9684 9684 9683 9682 9681 9680 9678 9676 9674 9673 9674 9673 9672 9670 9669 9668 9666 9665 9664 9662 9661 9659 9657 9655 9652 9650 9647 9645 9642 9639 9636 9634 9631 9629 9626 9623 9621 9618 9616 9613 9611 9608 9606 9603 9601 9598 9595 9592 9590 9588 9586 9584 9582 9580 9578 9576 9575
9715 9714 9712 9711 9710 9709 9707 9706 9704 9703 9701 9699 9698 9696 9695 9693 9692 9691 9690 9689 9689 9688 9687 9686 9683 9681 9678 9676 9674 9674 9673 9673 9672 9671 9669 9667 9664 9663 9662 9662 9661 9660 9658 9656 9655 9653 9652 9650 9649 9647 9645 9643 9640 9638 9636 9633 9630 9628 9625 9623 9620 9617 9614 9611 9608 9605 9603 9600 9598 9595 9592 9590 9588 9585 9582 9580 9577 9575 9573 9571 9569 9567 9565 9564 9562
9707 9705 9704 9703 9702 9700 9699 9698 9696 9694 9692 9691 9689 9687 9686 9684 9683 9682 9681 9680 9680 9679 9679 9678 9677 9675 9673 9670 9668 9666 9665 9664 9664 9663 9662 9659 9656 9654 9652 9652 9651 9649 9648 9646 9644 9642 9641 9639 9637 9635 9633 9631 9629 9627 9625 9622 9620 9617 9615 9612 9610 9606 9603 9600 9597 9594 9591 9588 9586 9583 9580 9577 9575 9572 9569 9567 9564 9562 9561 9559 9557 9555 9553 9552 9550
9699 9697 9696 9695 9694 9692 9691 9689 9688 9686 9684 9683 9681 9679 9678 9676 9675 9674 9673 9672 9671 9670 9670 9670 9669 9667 9666 9664 9661 9659 9657 9656 9655 9654 9653 9652 9649 9646 9644 9643 9641 9640 9638 9636 9635 9633 9632 9630 9628 9626 9623 9621 9619 9617 9614 9612 9610 9607 9605 9602 9599 9596 9593 9589 9586 9583 9580 9577 9574 9572 9569 9566 9563 9560 9557 9555 9552 9550 9548 9546 9544 9542 9540 9538 9537
9691 9690 9689 9687 9686 9684 9683 9681 9680 9678 9677 9675 9673 9672 9671 9669 9667 9666 9665 9664 9663 9662 9661 9660 9660 9658 9657 9656 9654 9652 9650 9648 9646 9645 9643 9642 9641 9639 9636 9635 9633 9631 9629 9628 9626 9624 9623 9621 9619 9617 9615 9612 9610 9607 9605 9602 9599 9597 9594 9591 9588 9585 9582 9579 9575 9572 9569 9566 9563 9560 9557 9554 9551 9549 9546 9543 9541 9538 9536 9534 9531 9530 9528 9526 9524
9685 9683 9682 9680 9679 9677 9675 9674 9672 9671 9669 9668 9666 9665 9663 9662 9660 9659 9657 9656 9655 9654 9653 9652 9651 9650 9648 9647 9645 9644 9642 9640 9638 9636 9634 9633 9631 9630 9628 9626 9625 9623 9621 9619 9617 9615 9613 9611 9609 9607 9605 9602 9599 9597 9594 9591 9589 9586 9583 9580 9577 9575 9571 9568 9565 9561 9558 9555 9551 9548 9545 9542 9539 9537 9534 9532 9530 9527 9525 9522 9520 9518 9516 9514 9512
9678 9677 9675 9673 9672 9670 9668 9667 9666 9664 9662 9661 9659 9657 9656 9654 9652 9651 9650 9648 9647 9646 9644 9643 9642 9640 9639 9638 9636 9635 9633 9631 9630 9628 9626 9624 9622 9621 9619 9618 9616 9614 9613 9611 9609 9607 9604 9602 9599 9597 9594 9592 9589 9586 9583 9581 9578 9575 9572 9570 9567 9564 9561 9558 9554 9550 9547 9544 9540 9537 9533 9530 9527 9525 9523 9520 9518 9516 9513 9511 9508 9506 9504 9502 9501
9672 9670 9668 9666 9665 9663 9662 9660 9659 9657 9655 9653 9652 9650 9648 9647 9645 9643 9642 9640 9639 9637 9636 9634 9633 9632 9630 9628 9627 9626 9624 9622 9621 9619 9618 9616 9614 9612 9610 9609 9607 9606 9604 9602 9600 9598 9596 9593 9591 9588 9586 9583 9580 9577 9574 9571 9568 9565 9562 9559 9557 9554 9551 9548 9544 9541 9537 9534 9530 9526 9523 9520 9517 9514 9511 9509 9507 9505 9502 9500 9498 9495 9493 9491 9489
9666 9664 9662 9660 9659 9657 9655 9653 9652 9650 9648 9646 9645 9643 9641 9639 9638 9636 9634 9633 9631 9629 9627 9626 9625 9623 9622 9620 9618 9617 9616 9614 9612 9611 9609 9608 9606 9604 9602 9600 9599 9597 9595 9594 9592 9590 9588 9585 9583 9580 9578 9575 9572 9569 9566 9563 9559 9556 9553 9550 9547 9544 9541 9538 9534 9531 9527 9524 9520 9517 9513 9510 9507 9504 9501 9498 9496 9494 9492 9490 9487 9485 9482 9480 9478
9661 9659 9657 9655 9653 9650 9649 9647 9645 9643 9641 9639 9638 9636 9634 9632 9630 9629 9627 9625 9623 9622 9620 9618 9617 9615 9614 9612 9611 9609 9607 9606 9604 9603 9601 9600 9598 9596 9594 9592 9590 9589 9587 9585 9584 9582 9579 9577 9574 9572 9569 9566 9563 9560 9557 9554 9550 9547 9544 9541 9538 9535 9531 9528 9525 9521 9518 9515 9511 9508 9504 9501 9498 9495 9492 9489 9486 9484 9482 9479 9477 9475 9473 9470 9468
9655 9653 9651 9649 9647 9645 9643 9641 9639 9637 9635 9633 9631 9629 9627 9625 9623 9621 9619 9618 9616 9614 9612 9611 9609 9608 9606 9605 9603 9601 9600 9598 9597 9595 9594 9592 9590 9588 9586 9584 9582 9581 9579 9577 9575 9573 9571 9569 9566 9564 9561 9558 9555 9551 9548 9545 9542 9539 9536 9532 9529 9525 9522 9519 9515 9512 9509 9506 9502 9499 9496 9492 9489 9486 9483 9480 9477 9474 9472 9470 9467 9465 9463 9461 9459
9650 9648 9646 9644 9642 9640 9637 9635 9633 9631 9629 9627 9625 9623 9621 9619 9617 9615 9613 9611 9609 9607 9605 9604 9602 9600 9599 9597 9596 9594 9593 9591 9589 9587 9586 9584 9582 9581 9579 9577 9575 9573 9571 9570 9568 9565 9563 9561 9558 9556 9553 9550 9546 9543 9540 9537 9534 9531 9528 9524 9521 9517 9513 9510 9507 9503 9500 9497 9494 9490 9487 9484 9481 9478 9475 9472 9468 9466 9463 9461 9458 9456 9454 9452 9450
9646 9643 9641 9639 9636 9634 9632 9630 9627 9625 9623 9620 9618 9616 9614 9612 9610 9608 9606 9604 9602 9600 9598 9597 9595 9593 9592 9590 9588 9587 9585 9584 9582 9580 9578 9576 9575 9573 9571 9569 9568 9566 9564 9562 9560 9558 9555 9553 9551 9548 9545 9542 9538 9535 9532 9529 9525 9523 9519 9516 9512 9509 9505 9501 9498 9495 9492 9488 9485 9482 9478 9475 9472 9469 9466 9463 9460 9458 9455 9452 9450 9447 9445 9443 9441
9640 9638 9636 9633 9631 9628 9626 9624 9622 9619 9617 9614 9612 9610 9608 9606 9604 9601 9599 9597 9595 9593 9591 9590 9588 9586 9584 9583 9581 9579 9578 9576 9574 9572 9570 9569 9567 9565 9564 9562 9560 9559 9557 9555 9553 9550 9548 9546 9543 9540 9537 9534 9531 9527 9524 9521 9518 9514 9511 9508 9504 9500 9497 9493 9490 9487 9483 9480 9477 9473 9470 9467 9464 9461 9458 9455 9452 9449 9447 9444 9441 9439 9437 9434 9432
9635 9632 9630 9627 9625 9623 9620 9618 9616 9613 9611 9609 9606 9604 9602 9599 9597 9595 9593 9591 9589 9587 9585 9583 9581 9579 9577 9575 9574 9572 9570 9569 9567 9565 9563 9561 9559 9558 9556 9555 9553 9551 9550 9547 9545 9543 9540 9538 9536 9533 9530 9527 9523 9520 9516 9513 9510 9507 9503 9499 9496 9492 9489 9485 9482 9479 9475 9472 9469 9465 9462 9459 9456 9453 9450 9448 9445 9442 9439 9436 9434 9431 9429 9427 9425
9629 9627 9624 9622 9619 9617 9614 9612 9610 9608 9605 9603 9600 9598 9596 9594 9591 9589 9586 9584 9582 9580 9578 9576 9574 9572 9570 9568 9566 9564 9563 9561 9559 9557 9556 9554 9552 9550 9549 9547 9546 9544 9542 9540 9538 9536 9533 9531 9528 9525 9522 9519 9516 9512 9509 9506 9502 9499 9495 9492 9488 9485 9481 9478 9475 9471 9468 9465 9461 9458 9455 9452 9449 9446 9443 9440 9437 9435 9432 9429 9427 9425 9422 9420 9418